To NAV CANADA Home Page Login to a new session Search on AWWS site Feedback and Comments Disclaimer Vers la page française équivalente Tips FAQ What's new on the site To the Forecasts and Observations / NOTAM section To "File a Flight Plan" website Publications and other links Update of the User's profile FIC Telephone Numbers My Weather Data Folder Route Weather Data Regional Weather Data Local Weather Data To the Forecasts and Observations / NOTAM section
Request Generated 03/31/2015 at 05:21:08 UTC . Weather information available at that time is displayed.

METAR/TAF

REPULSE BAY/NU    

LWIS CYUT 310500Z AUTO 34004KT 300V030 M30/M33 A2986=
LWIS CYUT 310400Z AUTO 33006KT M29/M33 A2985=
LWIS CYUT 310300Z AUTO VRB06KT M29/M33 A2985=

*** REMARK        : Forecast period has ended; this was the last TAF issued
*** REMARQUE : La période de prévision est échue; ceci était le dernier TAF qui a été émis
TAF AMD CYUT 301905Z 3019/3022 33015KT P6SM SKC
RMK NXT FCST WILL BE ISSUED AT 311345Z=
Your time UTC time
Weather data provided by Environment Canada and NAV CANADA